Location: Poughquag
(41.6090°N, 73.6820°W)
Time: 04:27:35
(UTC-05:00)

LilacSat-2 - Visible Passes

Search period start: 28 November 2023 00:00
Search period end: 08 December 2023 00:00
Orbit: 490 x 508 km, 97.5° (Epoch: 27 November)

Date Brightness Start Highest point End Pass type
(mag) Time Alt. Az. Time Alt. Az. Time Alt. Az.
28 Nov ? 06:14:23 10° N 06:18:07 81° WNW 06:21:50 10° SSW visible
28 Nov ? 16:52:22 10° SE 16:55:48 41° ENE 16:59:15 10° N visible
28 Nov ? 18:28:12 10° WSW 18:29:43 12° W 18:31:15 10° WNW visible
29 Nov ? 05:54:30 10° NNE 05:58:09 54° E 06:01:48 10° S visible
29 Nov ? 18:06:47 10° SW 18:09:36 21° W 18:12:27 10° NW visible
30 Nov ? 05:34:49 10° NE 05:38:07 30° E 05:41:25 10° SSE visible
30 Nov ? 17:46:08 10° SSW 17:49:31 37° W 17:52:57 10° NNW visible
01 Dec ? 05:15:28 10° NE 05:18:01 17° E 05:20:33 10° SE visible
01 Dec ? 17:25:52 10° S 17:29:29 70° WSW 17:33:09 10° NNW visible
02 Dec ? 06:28:13 10° N 06:31:52 53° WNW 06:35:29 10° SSW visible
02 Dec ? 17:05:53 10° SSE 17:09:29 62° ENE 17:13:07 10° N visible
03 Dec ? 06:08:07 10° NNE 06:11:52 83° ESE 06:15:35 10° S visible
03 Dec ? 18:21:14 10° SW 18:23:21 15° W 18:25:29 10° WNW visible
04 Dec ? 05:48:13 10° NNE 05:51:48 44° E 05:55:21 10° S visible
04 Dec ? 18:00:06 10° SSW 18:03:10 25° W 18:06:15 10° NW visible
05 Dec ? 05:28:33 10° NE 05:31:39 25° E 05:34:45 10° SSE visible
05 Dec ? 17:39:30 10° S 17:43:00 45° W 17:46:34 10° NNW visible
06 Dec ? 05:09:19 10° ENE 05:11:27 14° E 05:13:33 10° SE visible
06 Dec ? 17:19:15 10° SSE 17:22:53 86° WSW 17:26:36 10° NNW visible
07 Dec ? 06:21:33 10° N 06:25:15 66° WNW 06:28:56 10° SSW visible
07 Dec ? 16:59:17 10° SSE 17:02:49 50° ENE 17:06:25 10° N visible
07 Dec ? 18:36:26 10° W 18:36:50 10° W 18:37:13 10° W visible
